This demonstration page uses our WeatherBlox Daily Observations layout. Learn more.

Left ArrowRight Arrow

Hourly Observations for April 2, 2015

Temp ( °F °C ) Dew Point ( °F °C ) Humidity (%) Winds ( mph kmh ) Pressure ( in mb ) Visibility ( mi km ) Precip ( " mm )
12:53 am 00:53 Clear 44 6.7 32 0 63 63 E 3 6 30.05 1018 10 16.0934 0 0
1:53 am 01:53 Clear 46 7.8 31 -0.6 56 56 ENE 5 7 30.01 1016 10 16.0934 0 0
2:53 am 02:53 Clear 45 7.2 29 -1.7 54 54 E 3 6 29.98 1015 10 16.0934 0 0
3:53 am 03:53 Clear 47 8.3 29 -1.7 50 50 E 6 9 29.96 1014 10 16.0934 0 0
4:53 am 04:53 Clear 47 8.3 30 -1.1 52 52 E 6 9 29.95 1014 10 16.0934 0 0
5:53 am 05:53 Clear 51 10.6 28 -2.2 41 41 E 5 7 29.96 1015 10 16.0934 0 0
6:53 am 06:53 Cloudy 52 11.1 29 -1.7 41 41 E 6 9 29.96 1014 10 16.0934 0 0
7:53 am 07:53 Cloudy with Nearby Thunderstorms 53 11.7 31 -0.6 43 43 ESE 6 9 29.92 1013 9 14.48406 0 0.0254
8:09 am 08:09 Mostly Cloudy with Thunderstorms 52 11.1 34 1.1 50 50 WSW 6 9 30 1016 4 6.43736 0.04 1.016
8:12 am 08:12 Cloudy with Heavy Thunderstorms 50 10 37 2.8 61 61 Calm 29.97 1015 1.75 2.816345 0.09 2.286
8:21 am 08:21 Mostly Cloudy with Light Thunderstorms 49 9.4 39 3.9 69 69 W 5 7 29.97 1015 4 6.43736 0.11 2.794
8:33 am 08:33 Cloudy with Light Thunderstorms 47 8.3 43 6.1 86 86 W 3 6 30 1016 1.75 2.816345 0.14 3.556
8:41 am 08:41 Cloudy with Light Thunderstorms 47 8.3 44 6.7 90 90 E 3 6 30 1016 4 6.43736 0.14 3.556
8:51 am 08:51 Cloudy with Nearby Thunderstorms 48 9 45 7 87 87 E 5 7 29.97 1015 10 16.0934 0.14 3.556
8:53 am 08:53 Cloudy with Nearby Thunderstorms 48 8.9 45 7.2 89 89 E 5 7 29.95 1014 10 16.0934 0.14 3.556
9:06 am 09:06 Mostly Cloudy 49 9.4 46 7.8 90 90 SE 5 7 29.97 1015 10 16.0934 0 0
9:53 am 09:53 Mostly Cloudy 53 11.7 45 7.2 74 74 ESE 6 9 29.92 1013 10 16.0934 0 0
10:53 am 10:53 Cloudy with Light Rain 58 14.4 46 7.8 65 65 VRB 5 7 29.91 1013 10 16.0934 0 0.0254
11:53 am 11:53 Cloudy 63 17.2 49 9.4 60 60 S 8 13 29.9 1013 10 16.0934 0.01 0.254
12:53 pm 12:53 Mostly Cloudy 66 18.9 53 11.7 63 63 SSW 14 22 29.88 1012 10 16.0934 0 0
1:25 pm 13:25 Cloudy with Nearby Thunderstorms 65 18.3 57 13.9 76 76 SSW 10 17 29.88 1012 10 16.0934 0 0.0254
1:42 pm 13:42 Cloudy 65 18.3 57 13.9 76 76 SSW 13 20 29.88 1012 10 16.0934 0.01 0.254
1:53 pm 13:53 Mostly Cloudy 67 19.4 57 13.9 71 71 SSW 12 19 29.85 1011 10 16.0934 0.01 0.254
2:07 pm 14:07 Cloudy 67 19.4 57 13.9 71 71 SW 16 26 29.88 1012 10 16.0934 0 0
2:21 pm 14:21 Cloudy 67 19.4 56 13.3 68 68 SW 15 24 29.85 1011 10 16.0934 0 0
2:32 pm 14:32 Cloudy with Light Rain 65 18.3 57 13.9 76 76 SSW 10 17 29.88 1012 9 14.48406 0 0.0254
2:53 pm 14:53 Cloudy with Rain 63 17.2 57 13.9 81 81 SW 14 22 29.86 1011 3 4.82802 0.02 0.508
3:01 pm 15:01 Cloudy with Rain 62 16.7 58 14.4 86 86 SW 8 13 29.88 1012 2 3.21868 0.02 0.508
3:10 pm 15:10 Cloudy with Light Rain 62 16.7 59 15 90 90 SSW 8 13 29.85 1011 6 9.65604 0.03 0.762
3:14 pm 15:14 Cloudy with Rain 61 16.1 59 15 93 93 SW 9 15 29.88 1012 1.75 2.816345 0.07 1.778
3:21 pm 15:21 Cloudy with Rain 61 16.1 59 15 93 93 SW 7 11 29.88 1012 1 1.60934 0.12 3.048
3:26 pm 15:26 Cloudy with Nearby Thunderstorms 61 16.1 59 15 93 93 SW 10 17 29.88 1012 1.75 2.816345 0.13 3.302
3:30 pm 15:30 Cloudy with Nearby Thunderstorms 61 16.1 58 14.4 90 90 SW 10 17 29.88 1012 3 4.82802 0.14 3.556
3:37 pm 15:37 Cloudy with Rain 61 16.1 59 15 93 93 SSW 7 11 29.88 1012 2.5 4.02335 0.16 4.064
3:41 pm 15:41 Cloudy with Rain 61 16.1 59 15 93 93 SW 8 13 29.88 1012 1.5 2.41401 0.19 4.826
3:51 pm 15:51 Cloudy with Rain 61 16 59 15 94 94 SSW 5 7 29.85 1011 1.75 2.816345 0.22 5.588
3:53 pm 15:53 Cloudy with Rain 61 16.1 59 15 93 93 SSW 6 9 29.86 1011 2 3.21868 0.22 5.588
4:09 pm 16:09 Cloudy with Light Rain 61 16.1 59 15 93 93 S 7 11 29.83 1010 3 4.82802 0.03 0.762
4:53 pm 16:53 Cloudy 64 17.8 61 16.1 90 90 S 8 13 29.81 1009 10 16.0934 0.04 1.016
5:53 pm 17:53 Partly Cloudy 67 19.4 61 16.1 81 81 VRB 7 11 29.81 1010 10 16.0934 0 0
6:26 pm 18:26 Cloudy 67 19.4 62 16.7 84 84 S 6 9 29.83 1010 10 16.0934 0 0
6:53 pm 18:53 Mostly Cloudy 68 20 61 16.1 78 78 SSW 9 15 29.84 1010 10 16.0934 0 0
7:32 pm 19:32 Mostly Cloudy 67 19.4 61 16.1 81 81 SSW 9 15 29.83 1010 10 16.0934 0 0
7:53 pm 19:53 Partly Cloudy 66 18.9 61 16.1 84 84 SSW 5 7 29.82 1010 10 16.0934 0 0
8:53 pm 20:53 Cloudy 65 18.3 61 16.1 87 87 SSW 9 15 29.83 1010 10 16.0934 0 0
9:53 pm 21:53 Mostly Cloudy 64 17.8 60 15.6 87 87 SW 9 15 29.86 1011 10 16.0934 0 0.0254
10:07 pm 22:07 Mostly Cloudy with Light Thunderstorms 64 17.8 60 15.6 87 87 SW 9 15 29.88 1012 10 16.0934 0 0.0254
10:24 pm 22:24 Cloudy with Nearby Thunderstorms 63 17.2 61 16.1 93 93 SW 9 15 29.88 1012 9 14.48406 0.01 0.254
10:36 pm 22:36 Cloudy with Thunderstorms 63 17.2 61 16.1 93 93 NW 8 13 29.88 1012 4 6.43736 0.03 0.762
10:48 pm 22:48 Cloudy with Thunderstorms 63 17 61 16 94 94 W 8 13 29.91 1013 4 6.43736 0.06 1.524
10:53 pm 22:53 Cloudy with Nearby Thunderstorms 62 16.7 61 16.1 96 96 W 7 11 29.9 1012 3 4.82802 0.07 1.778
11:00 pm 23:00 Cloudy with Rain 62 16.7 61 16.1 96 96 W 5 7 29.88 1012 2.5 4.02335 0.03 0.762
11:11 pm 23:11 Cloudy with Rain 62 16.7 61 16.1 96 96 Calm 29.88 1012 2.5 4.02335 0.08 2.032
11:32 pm 23:32 Cloudy with Light Rain 61 16.1 61 16.1 100 100 S 3 6 29.88 1012 4 6.43736 0.12 3.048
11:53 pm 23:53 Cloudy 61 16.1 60 15.6 97 97 S 5 7 29.88 1012 9 14.48406 0.12 3.048

Powered by AerisWeather